Flag for Germany Weather past 2 weeks in Oberhausen, North Rhine-Westphalia, Germany

Now
63 °F

Sunny.


Feels Like: 63 °F
Forecast: 52 / 63 °F
Wind: 10 mph from South

Location: Duesseldorf

Current Time: May 27, 2015 at 8:29:32 PM

Latest Report: May 27, 2015 at 7:50 PM


Visibility: 10 mi

Pressure: 30.12 "Hg

Humidity: 45%

Dew point: 41 °F

Location of OberhausenLocation

Historic Weather in Oberhausen — Graph

°F

Oberhausen temperature yesterday

Maximum temperature yesterday: 59 °F (at 5:20 PM)
Minimum temperature yesterday: 50 °F (at 3:20 AM)
Average temperature yesterday: 54 °F

Past Weeks' High & Low Weather Summary

 TemperatureHumidityPressure
High70 °F (May 18, 2:50 PM)100% (May 16, 3:50 PM)30.33 "Hg (May 16, 3:50 PM)
Low37 °F (May 21, 4:20 AM)32% (May 13, 6:20 PM)29.65 "Hg (May 18, 6:20 PM)
Average55 °F66%30.07 "Hg
* Reported May 12 7:20 PM — May 27 7:20 PM, Oberhausen, Weather by CustomWeather, © 2015

Note: Actual official high and low records may vary slightly from our data, if they occured in-between our weather recording intervals... More about our weather records

Advertising

Oberhausen weather history for previous 24 hours

 ConditionsComfort  
Time TempWeatherWind HumidityBarometerVisibility
7:20 PM
Wed, May 27
63 °FSunny.9 mph42%30.12 "Hg10 mi
6:50 PM64 °FPassing clouds.8 mph37%30.12 "HgN/A
6:20 PM64 °FSunny.7 mph37%30.15 "Hg10 mi
5:50 PM64 °FSunny.3 mph40%30.15 "Hg10 mi
5:20 PM64 °FSunny.3 mph37%30.18 "Hg10 mi
4:50 PM63 °FSunny.5 mph42%30.18 "Hg10 mi
4:20 PM63 °FSunny.3 mph42%30.18 "Hg10 mi
3:50 PM63 °FSunny.6 mph42%30.18 "Hg10 mi
3:20 PM63 °FSunny.8 mph42%30.21 "Hg10 mi
2:50 PM63 °FSunny.7 mph42%30.21 "Hg10 mi
2:20 PM61 °FBroken clouds.6 mph45%30.21 "HgN/A
1:50 PM61 °FBroken clouds.2 mph48%30.21 "HgN/A
1:20 PM61 °FBroken clouds.3 mph42%30.24 "HgN/A
12:50 PM61 °FScattered clouds.3 mph42%30.24 "HgN/A
12:20 PM59 °FScattered clouds.5 mph48%30.24 "HgN/A
11:50 AM57 °FBroken clouds.6 mph51%30.27 "HgN/A
11:20 AM59 °FScattered clouds.3 mph48%30.27 "HgN/A
10:50 AM59 °FScattered clouds.2 mph48%30.27 "HgN/A
10:20 AM55 °FScattered clouds.2 mph55%30.27 "HgN/A
9:50 AM57 °FPassing clouds.5 mph48%30.27 "HgN/A
9:20 AM55 °FPartly sunny.5 mph55%30.27 "HgN/A
8:50 AM54 °FPartly sunny.3 mph67%30.27 "HgN/A
8:20 AM52 °FPartly sunny.3 mph72%30.27 "HgN/A
7:50 AM52 °FPartly sunny.5 mph72%30.24 "HgN/A
7:20 AM52 °FPartly sunny.1 mph72%30.24 "HgN/A
6:50 AM50 °FPartly sunny.2 mph76%30.24 "HgN/A
6:20 AM50 °FPassing clouds.3 mph76%30.24 "HgN/A
5:50 AM50 °FOvercast.3 mph76%30.24 "HgN/A
5:20 AM50 °FOvercast.3 mph76%30.24 "HgN/A
4:50 AM48 °FOvercast.1 mph82%30.24 "HgN/A
4:20 AM48 °FOvercast.1 mph82%30.27 "HgN/A
3:50 AM48 °FOvercast.1 mph82%30.24 "HgN/A
3:20 AM48 °FOvercast.1 mph82%30.24 "HgN/A
2:50 AM48 °FOvercast.3 mph82%30.24 "HgN/A
2:20 AM48 °FOvercast.2 mph82%30.24 "HgN/A
1:50 AM50 °FOvercast.3 mph71%30.24 "HgN/A
1:20 AM50 °FOvercast.5 mph71%30.24 "HgN/A
12:50 AM50 °FOvercast.3 mph71%30.24 "HgN/A
12:20 AM48 °FPassing clouds.3 mph76%30.24 "HgN/A
11:20 PM
Tue, May 26
50 °FClear.5 mph71%30.24 "Hg10 mi
10:50 PM50 °FClear.7 mph71%30.24 "Hg10 mi
10:20 PM52 °FSunny.7 mph67%30.21 "Hg10 mi
9:50 PM52 °FSunny.7 mph67%30.21 "Hg10 mi
9:20 PM54 °FPartly sunny.8 mph63%30.21 "HgN/A
8:50 PM54 °FPartly sunny.8 mph58%30.21 "HgN/A
8:20 PM55 °FPartly sunny.9 mph55%30.18 "HgN/A
Weather by CustomWeather, © 2015

See weather overviewHow to use our weather pages